SCP
-0 -0 -0 -0 -0 -0 -0 -0 -0 -0 -0 -0 -0 -0 -0 -0 -0 0 0 -0 0 -0 0 0 0 0 0 0 0 0 0 0 0 0 0 0 0 0 0 0 0 0 0 0 0
-0 -0 -0 -0 -0 -0 -0 -0 -0 -0 -0 -0 -0 -0 -0 -0 0 0 -0 0 0 0 0 0 0 0 0 0 0 0 0 0 0 0 0 0 0 0 0 0 0 0 0 0 0
-0 -0 -0 -0 -0 -0 -0 -0 -0 -0 -0 -0 -0 -0 -0 -0 0 0 -0 -0 0 0 0 0 0 0 0 0 0 0 0 0 0 0 0 0 0 0 0 0 0 0 -0 -0 0
-0 -0 -0 -0 -0 -0 -0 -0 -0 -0 -0 -0 -0 -0 -0 0 0 0 0 -0 0 0 0 0 0 0 0 0 0 0 0 0 0 -0 0 0 0 0 0 -0 -0 -0 -0 0 0
-0 -0 -0 -0 -0 -0 -0 -0 -0 -0 -0 0 0 0 0 0 0 -0 -0 0 0 0 0 0 0 0 0 0 0 0 0 0 0 0 0 0 0 0 0 0 0 0 0 0 0
-0 -0 -0 -0 -0 -0 -0 -0 -0 -0 0 0 0 0 0 0 0 0 0 0 0 0 0 0 0 0 0 0 0 0 0 0 0 0 0 0 0 0 0 0 0 0 0 0 0
-0 -0 -0 -0 -0 -0 -0 -0 -0 -0 0 0 0 0 0 0 0 0 0 0 0 0 0 0 0 0 0 0 0 0 0 0 0 0 0 0 0 0 0 0 0 0 0 0 0
-0 -0 -0 -0 -0 -0 -0 -0 -0 -0 -0 -0 0 0 0 -0 -0 0 0 0 0 0 0 0 0 0 0 0 0 0 0 0 0 0 0 0 0 -0 0 -0 0 0 0 0 0
-0 -0 -0 -0 -0 -0 -0 -0 0 0 0 0 0 0 0 0 0 -0 0 0 0 0 0 0 0 0 0 0 0 0 0 0 0 0 0 0 0 0 0 0 0 0 0 0 0
-0 -0 -0 -0 -0 -0 -0 -0 0 0 0 0 0 0 0 0 -0 -0 -0 0 0 0 0 0 0 0 0 0 0 0 0 0 0 0 0 0 0 0 0 -0 -0 0 0 0 0
0 -0 -0 -0 -0 -0 0 0 0 0 0 0 0 0 0 0 0 0 0 0 0 0 0 0 0 0 0 0 0 0 0 0 0 0 0 0 0 0 0 0 0 0 0 0 0
0 0 0 -0 -0 0 0 0 0 0 0 0 0 0 0 0 0 0 0 0 0 0 0 0 0 0 0 0 0 0 0 0 0 0 0 0 0 0 0 0 0 0 0 0 0
0 -0 0 -0 -0 0 0 0 0 0 0 0 0 0 0 0 0 -0 0 0 0 0 0 0 0 0 0 0 0 0 0 0 0 0 0 0 0 0 0 0 0 0 0 0 0
0 0 0 0 0 0 0 0 0 -0 0 0 0 0 0 0 0 0 0 0 0 0 0 0 0 0 0 0 0 0 0 0 0 0 0 0 0 0 0 0 0 0 0 0 0
0 0 0 0 0 0 0 0 0 0 0 0 0 0 0 0 0 0 0 0 0 0 0 0 0 0 0 0 0 0 0 0 0 0 0 0 0 0 0 0 0 0 0 0 0
0 0 0 -0 0 0 0 0 0 0 0 0 0 0 0 0 0 0 0 0 0 0 0 0 0 0 0 0 0 0 0 0 0 0 0 0 0 0 0 0 0 0 0 0 0
0 0 0 -0 0 0 0 0 0 0 0 0 0 0 0 0 0 0 0 0 0 0 0 0 0 0 0 0 0 0 0 0 0 0 0 0 0 0 0 0 0 0 0 0 0
0 0 0 -0 0 0 0 0 0 0 0 0 0 0 0 0 0 0 0 0 0 0 0 0 0 0 0 0 0 0 0 0 0 0 0 0 0 0 0 0 0 0 0 0 0
-0 0 0 0 0 0 0 0 0 0 0 0 0 0 0 0 0 0 0 0 0 0 0 0 0 0 0 0 0 0 0 0 0 0 0 0 0 0 0 0 0 0 0 0 0
0 0 0 0 0 0 0 0 0 0 0 0 0 0 0 0 0 0 0 0 0 0 0 0 0 0 0 0 0 0 0 0 0 0 0 0 0 0 0 -0 0 0 0 0 0
0 0 0 -0 0 0 0 0 0 0 0 0 0 0 0 0 0 0 0 0 0 0 0 0 0 0 0 0 0 0 0 0 0 0 0 0 0 0 -0 0 0 0 0 0 0
0 0 0 0 0 0 0 0 0 0 0 0 0 -0 -0 0 0 0 0 0 0 0 0 0 0 0 0 0 0 0 0 0 0 0 0 0 0 0 0 0 0 0 0 0 0
0 0 0 0 0 0 0 0 0 0 0 0 0 0 0 0 0 0 0 0 0 0 0 0 0 0 0 0 0 0 0 0 0 0 0 0 0 0 0 0 0 0 0 0 0
0 0 0 0 0 0 0 0 0 0 0 0 0 0 0 0 0 0 0 0 0 0 0 0 0 0 0 0 0 0 0 0 0 0 0 0 0 0 0 0 0 0 0 0 0
0 0 0 0 0 0 0 0 0 0 0 0 0 0 0 0 0 0 0 0 0 0 0 0 0 0 0 0 0 0 0 0 0 0 0 0 0 0 0 0 0 0 0 0 0
0 0 0 0 0 0 0 0 0 0 0 0 0 0 0 0 0 0 0 0 0 0 0 0 0 0 0 0 0 0 0 0 0 0 0 0 0 0 0 0 0 0 0 0 0
0 0 0 0 0 0 0 0 0 0 0 0 0 0 0 0 0 0 0 0 0 0 0 0 0 0 0 0 0 0 0 0 0 0 0 0 0 0 0 0 0 0 0 0 0
Wind_Speed_500mb
59 58 47 32 23 19 16 13 13 11 9 8 7 6 5 7 11 16 11 4 6 11 11 10 9 8 7 7 6 5 10 5 2 5 5 8 13 20 10 20 18 6 18 37 28
55 59 57 44 30 22 19 15 13 12 9 8 7 6 7 10 15 9 2 3 8 7 11 13 8 5 8 5 4 10 8 12 6 6 12 25 24 22 15 27 26 49 40 33 26
51 53 56 52 40 27 22 16 13 11 8 8 8 8 8 9 6 8 4 13 10 9 12 13 11 11 8 5 3 3 7 8 3 24 41 22 25 19 44 6 36 64 56 44 35
50 50 52 52 45 34 24 17 14 11 8 9 8 6 5 4 3 5 11 19 11 12 18 14 12 7 7 6 3 4 6 8 12 34 33 24 54 22 18 33 62 60 62 55 44
51 50 49 50 47 39 25 17 14 9 7 9 7 3 0 1 4 4 16 8 7 8 14 17 21 7 5 2 4 6 6 10 11 29 29 48 13 14 23 59 59 65 62 55 46
50 49 48 47 47 39 26 18 14 10 8 8 5 1 3 2 8 11 15 7 7 11 6 13 10 9 8 3 6 1 5 4 14 27 30 25 11 11 34 60 58 59 55 50 46
51 49 48 47 45 42 26 17 14 11 9 7 3 4 8 6 11 15 9 3 4 9 5 5 7 9 6 3 9 4 8 9 3 18 8 37 9 5 57 59 59 53 50 45 39
52 50 47 46 45 43 26 17 12 9 9 3 2 6 8 10 16 14 10 9 13 14 10 4 6 7 2 2 9 8 10 6 7 14 24 8 12 12 60 64 58 49 47 44 40
53 51 48 44 42 41 21 18 18 10 8 7 6 6 7 14 18 12 12 3 9 6 9 8 6 3 4 8 9 12 6 5 10 18 12 8 11 12 62 59 53 55 50 46 39
56 51 45 42 38 32 22 21 15 6 4 1 7 5 7 2 11 18 15 11 4 3 4 4 4 6 7 8 8 8 3 3 6 2 5 12 8 12 59 62 62 54 51 51 46
58 54 47 36 33 25 20 9 10 3 9 14 25 25 19 1 12 16 16 13 10 3 3 6 9 6 10 11 6 7 6 1 5 1 7 11 6 15 34 34 39 48 49 49 45
57 54 47 37 29 16 16 10 18 20 24 32 34 38 40 25 7 17 16 12 6 3 5 10 5 11 9 7 6 5 7 0 6 8 8 10 5 6 16 25 55 59 57 54 44
57 56 49 33 29 5 14 7 21 22 10 28 28 32 43 36 18 27 13 15 6 5 4 9 6 6 8 9 12 4 10 6 6 8 9 6 9 7 3 4 13 42 60 51 41
56 57 59 42 15 7 3 13 17 10 8 13 7 10 27 22 10 38 23 12 3 10 12 6 8 7 5 7 8 6 5 4 4 6 5 6 8 8 8 14 3 19 45 46 34
60 59 62 51 44 20 11 9 5 3 8 6 3 9 24 35 14 18 27 22 13 9 9 10 2 4 5 7 9 9 7 5 4 7 6 6 6 13 7 6 3 17 34 25 25
62 62 78 56 38 17 9 1 7 11 12 10 8 7 9 7 5 11 12 14 9 7 5 8 2 6 11 6 4 14 11 14 9 6 2 6 9 9 8 10 7 11 24 20 24
64 69 52 36 15 11 10 12 9 8 11 8 1 5 5 8 4 6 10 8 11 8 5 4 4 5 5 9 6 12 12 6 7 7 10 7 4 15 9 11 16 21 31 20 17
65 65 30 39 15 22 15 9 8 9 10 11 9 4 15 9 10 6 10 7 5 9 6 9 9 11 7 11 15 6 14 10 10 6 8 4 9 9 6 15 19 21 22 17 16
63 51 37 37 10 23 19 6 16 12 6 8 13 1 3 1 2 6 14 11 15 16 14 10 8 2 6 6 12 7 5 8 14 6 4 6 11 13 4 4 11 23 20 14 12
61 40 43 32 2 33 7 7 7 6 5 8 6 7 7 6 8 10 13 10 11 24 10 14 3 1 5 11 14 7 13 6 5 4 7 9 9 10 10 16 14 18 22 18 13
46 15 27 11 12 1 6 9 7 5 14 6 1 6 6 6 7 6 12 11 12 6 11 11 9 7 2 8 16 4 3 11 9 9 10 2 11 13 20 22 21 32 23 16 8
23 7 16 7 4 4 3 4 13 9 6 3 6 12 11 9 8 8 15 13 16 22 17 9 11 8 12 7 2 6 11 12 10 9 4 8 12 6 15 10 9 9 19 14 14
36 13 15 10 5 3 10 6 4 8 7 7 5 4 4 6 7 14 12 6 20 18 20 16 1 6 12 11 4 6 8 9 10 7 13 11 12 4 11 3 5 21 18 18 16
13 7 8 17 13 4 5 5 9 16 5 8 6 5 8 8 13 12 7 4 5 8 14 18 7 15 18 14 9 9 9 10 10 8 9 11 9 12 1 9 14 22 18 16 11
6 3 2 4 8 9 4 5 4 11 10 14 3 6 4 6 12 3 8 5 4 8 7 9 11 7 4 9 9 8 9 12 10 8 9 10 12 14 7 12 17 18 14 12 7
6 3 2 1 6 6 6 5 5 8 3 8 6 22 11 3 9 8 13 9 9 1 6 3 7 7 6 6 9 6 12 14 12 9 10 7 10 2 13 24 17 14 13 8 4
4 3 4 4 4 3 3 5 5 10 12 18 6 9 10 13 11 4 2 22 23 8 8 12 13 7 7 9 7 9 16 11 6 4 8 10 13 15 9 18 12 9 8 10 9
Wind_Direction_500mb
23 22 20 13 2 352 344 334 328 326 324 319 324 331 315 306 311 318 345 50 102 108 83 60 58 20 68 87 70 60 62 76 127 136 82 112 98 68 84 101 70 119 127 131 120
19 19 17 15 8 357 348 338 333 328 324 314 313 308 302 307 316 348 320 163 157 105 67 37 58 120 98 83 64 78 89 202 224 139 130 110 95 116 109 105 88 107 125 131 127
14 14 15 13 8 0 351 343 335 333 327 327 315 306 297 318 352 36 8 178 154 86 31 30 47 101 88 76 59 121 154 178 180 121 133 119 107 122 121 340 151 145 143 140 139
8 9 9 11 6 0 353 349 341 337 333 339 332 314 293 326 139 29 109 121 110 62 37 43 50 81 80 85 57 41 241 191 151 151 140 140 138 152 174 164 144 143 146 150 142
1 2 3 4 4 358 353 351 347 338 331 343 337 330 150 344 50 191 155 125 86 64 48 55 49 70 82 84 67 141 269 206 130 169 163 146 135 143 162 153 153 153 157 152 142
355 355 356 357 359 356 347 342 344 333 321 337 339 262 176 329 109 146 147 125 51 30 49 53 46 44 95 87 103 253 79 127 146 133 143 136 140 111 163 163 161 160 160 158 149
349 349 349 350 352 353 339 334 332 331 327 312 287 242 240 210 171 162 163 125 318 330 10 57 20 12 347 20 354 74 93 25 218 165 151 124 345 188 170 173 168 173 171 163 155
344 343 344 345 346 350 334 328 330 334 342 343 265 248 239 197 194 210 214 253 266 264 287 312 350 313 229 325 30 71 58 97 253 156 169 103 229 229 174 175 182 184 179 173 167
339 339 340 342 343 349 340 328 314 309 302 296 276 229 242 209 226 205 215 219 136 222 258 264 301 89 91 81 24 11 163 161 302 203 146 180 233 202 181 186 184 183 181 177 171
334 332 335 340 341 349 347 331 339 298 298 295 250 273 225 288 207 208 207 220 230 126 216 193 100 71 44 79 190 202 144 230 230 315 177 173 212 166 180 189 196 193 187 186 186
332 328 329 337 337 345 358 3 342 308 282 249 275 267 275 318 195 209 202 181 201 130 83 23 61 229 221 195 149 146 118 312 280 199 141 206 185 172 189 197 203 207 199 197 196
341 333 325 328 333 336 360 87 38 319 297 291 266 245 246 250 293 209 221 203 136 163 107 26 226 223 198 138 156 134 116 3 293 355 141 181 206 62 164 207 216 211 206 202 201
348 344 331 322 325 302 11 96 347 328 261 295 252 237 226 228 226 227 197 191 148 135 169 163 236 121 148 122 100 58 133 158 183 349 45 61 338 346 289 318 260 228 216 202 204
345 346 340 330 315 313 117 353 340 339 34 281 253 242 192 187 223 224 235 187 91 167 151 212 291 142 129 152 128 154 188 120 96 80 213 42 259 294 318 314 310 206 199 198 215
339 344 336 331 305 298 289 326 349 15 349 258 239 171 174 166 156 192 202 195 161 192 102 246 125 124 142 199 141 204 91 63 71 90 73 1 79 270 320 293 179 155 172 185 202
336 342 331 324 315 285 235 196 140 43 250 325 142 158 127 204 161 128 151 157 112 106 21 216 302 168 197 84 92 143 79 47 49 77 26 218 137 273 207 214 201 189 180 176 179
334 339 335 344 313 222 180 143 57 150 316 315 6 153 192 165 186 137 150 139 153 104 244 336 285 312 140 103 52 75 62 346 352 8 222 178 92 241 234 232 194 195 192 191 191
334 344 347 346 304 218 190 60 142 222 254 307 349 165 186 153 211 147 119 185 200 106 124 151 308 181 184 176 181 152 146 152 205 209 261 295 230 253 249 280 200 194 183 185 212
334 347 2 345 260 200 168 121 195 207 279 4 336 145 252 76 210 141 193 218 195 172 162 147 267 252 193 139 129 177 152 160 103 16 40 270 297 317 215 220 216 198 197 202 230
337 342 1 351 317 167 95 225 215 211 8 7 342 32 2 16 10 161 191 224 219 193 163 204 106 270 145 108 42 141 150 78 21 149 261 298 282 235 241 230 229 233 216 218 246
338 331 7 49 78 179 143 237 266 156 57 70 35 311 286 305 205 221 220 260 219 155 125 138 119 273 125 196 168 99 124 57 116 131 169 228 264 216 210 214 210 227 213 224 209
340 329 349 213 55 40 124 313 337 329 23 257 170 221 225 203 264 251 218 219 183 150 165 187 136 167 195 316 98 143 173 144 130 222 178 149 274 295 253 276 228 244 216 201 159
327 293 9 155 120 354 315 301 312 357 352 8 317 48 301 249 269 217 235 294 174 157 167 183 246 76 357 353 335 185 175 124 109 82 188 142 257 326 350 91 140 153 155 142 138
317 338 5 65 47 87 14 350 331 354 146 2 265 26 354 277 213 247 245 317 186 140 138 132 123 158 190 201 148 160 168 146 132 129 173 218 272 292 268 103 129 133 130 121 101
288 273 41 350 353 346 285 338 357 355 360 349 308 54 326 286 323 291 330 301 26 149 98 127 158 149 194 172 134 149 168 169 179 172 155 244 198 277 231 162 146 123 107 100 58
289 333 347 233 306 315 344 60 31 336 316 325 45 328 300 210 150 292 357 355 276 270 118 39 166 143 150 169 136 203 240 207 204 202 241 251 247 172 133 136 129 111 110 96 59
249 258 305 343 21 18 284 38 36 357 266 238 34 334 286 252 229 254 357 311 263 279 216 142 136 110 220 152 107 311 229 199 142 104 139 181 215 159 119 121 114 112 130 112 62
Wind_Speed_850mb
59 58 47 32 23 19 16 13 13 11 9 8 7 6 5 7 11 16 11 4 6 11 11 10 9 8 7 7 6 5 10 5 2 5 5 8 13 20 10 20 18 6 18 37 28
55 59 57 44 30 22 19 15 13 12 9 8 7 6 7 10 15 9 2 3 8 7 11 13 8 5 8 5 4 10 8 12 6 6 12 25 24 22 15 27 26 49 40 33 26
51 53 56 52 40 27 22 16 13 11 8 8 8 8 8 9 6 8 4 13 10 9 12 13 11 11 8 5 3 3 7 8 3 24 41 22 25 19 44 6 36 64 56 44 35
50 50 52 52 45 34 24 17 14 11 8 9 8 6 5 4 3 5 11 19 11 12 18 14 12 7 7 6 3 4 6 8 12 34 33 24 54 22 18 33 62 60 62 55 44
51 50 49 50 47 39 25 17 14 9 7 9 7 3 0 1 4 4 16 8 7 8 14 17 21 7 5 2 4 6 6 10 11 29 29 48 13 14 23 59 59 65 62 55 46
50 49 48 47 47 39 26 18 14 10 8 8 5 1 3 2 8 11 15 7 7 11 6 13 10 9 8 3 6 1 5 4 14 27 30 25 11 11 34 60 58 59 55 50 46
51 49 48 47 45 42 26 17 14 11 9 7 3 4 8 6 11 15 9 3 4 9 5 5 7 9 6 3 9 4 8 9 3 18 8 37 9 5 57 59 59 53 50 45 39
52 50 47 46 45 43 26 17 12 9 9 3 2 6 8 10 16 14 10 9 13 14 10 4 6 7 2 2 9 8 10 6 7 14 24 8 12 12 60 64 58 49 47 44 40
53 51 48 44 42 41 21 18 18 10 8 7 6 6 7 14 18 12 12 3 9 6 9 8 6 3 4 8 9 12 6 5 10 18 12 8 11 12 62 59 53 55 50 46 39
56 51 45 42 38 32 22 21 15 6 4 1 7 5 7 2 11 18 15 11 4 3 4 4 4 6 7 8 8 8 3 3 6 2 5 12 8 12 59 62 62 54 51 51 46
58 54 47 36 33 25 20 9 10 3 9 14 25 25 19 1 12 16 16 13 10 3 3 6 9 6 10 11 6 7 6 1 5 1 7 11 6 15 34 34 39 48 49 49 45
57 54 47 37 29 16 16 10 18 20 24 32 34 38 40 25 7 17 16 12 6 3 5 10 5 11 9 7 6 5 7 0 6 8 8 10 5 6 16 25 55 59 57 54 44
57 56 49 33 29 5 14 7 21 22 10 28 28 32 43 36 18 27 13 15 6 5 4 9 6 6 8 9 12 4 10 6 6 8 9 6 9 7 3 4 13 42 60 51 41
56 57 59 42 15 7 3 13 17 10 8 13 7 10 27 22 10 38 23 12 3 10 12 6 8 7 5 7 8 6 5 4 4 6 5 6 8 8 8 14 3 19 45 46 34
60 59 62 51 44 20 11 9 5 3 8 6 3 9 24 35 14 18 27 22 13 9 9 10 2 4 5 7 9 9 7 5 4 7 6 6 6 13 7 6 3 17 34 25 25
62 62 78 56 38 17 9 1 7 11 12 10 8 7 9 7 5 11 12 14 9 7 5 8 2 6 11 6 4 14 11 14 9 6 2 6 9 9 8 10 7 11 24 20 24
64 69 52 36 15 11 10 12 9 8 11 8 1 5 5 8 4 6 10 8 11 8 5 4 4 5 5 9 6 12 12 6 7 7 10 7 4 15 9 11 16 21 31 20 17
65 65 30 39 15 22 15 9 8 9 10 11 9 4 15 9 10 6 10 7 5 9 6 9 9 11 7 11 15 6 14 10 10 6 8 4 9 9 6 15 19 21 22 17 16
63 51 37 37 10 23 19 6 16 12 6 8 13 1 3 1 2 6 14 11 15 16 14 10 8 2 6 6 12 7 5 8 14 6 4 6 11 13 4 4 11 23 20 14 12
61 40 43 32 2 33 7 7 7 6 5 8 6 7 7 6 8 10 13 10 11 24 10 14 3 1 5 11 14 7 13 6 5 4 7 9 9 10 10 16 14 18 22 18 13
46 15 27 11 12 1 6 9 7 5 14 6 1 6 6 6 7 6 12 11 12 6 11 11 9 7 2 8 16 4 3 11 9 9 10 2 11 13 20 22 21 32 23 16 8
23 7 16 7 4 4 3 4 13 9 6 3 6 12 11 9 8 8 15 13 16 22 17 9 11 8 12 7 2 6 11 12 10 9 4 8 12 6 15 10 9 9 19 14 14
36 13 15 10 5 3 10 6 4 8 7 7 5 4 4 6 7 14 12 6 20 18 20 16 1 6 12 11 4 6 8 9 10 7 13 11 12 4 11 3 5 21 18 18 16
13 7 8 17 13 4 5 5 9 16 5 8 6 5 8 8 13 12 7 4 5 8 14 18 7 15 18 14 9 9 9 10 10 8 9 11 9 12 1 9 14 22 18 16 11
6 3 2 4 8 9 4 5 4 11 10 14 3 6 4 6 12 3 8 5 4 8 7 9 11 7 4 9 9 8 9 12 10 8 9 10 12 14 7 12 17 18 14 12 7
6 3 2 1 6 6 6 5 5 8 3 8 6 22 11 3 9 8 13 9 9 1 6 3 7 7 6 6 9 6 12 14 12 9 10 7 10 2 13 24 17 14 13 8 4
4 3 4 4 4 3 3 5 5 10 12 18 6 9 10 13 11 4 2 22 23 8 8 12 13 7 7 9 7 9 16 11 6 4 8 10 13 15 9 18 12 9 8 10 9
Wind_Direction_850mb
23 22 20 13 2 352 344 334 328 326 324 319 324 331 315 306 311 318 345 50 102 108 83 60 58 20 68 87 70 60 62 76 127 136 82 112 98 68 84 101 70 119 127 131 120
19 19 17 15 8 357 348 338 333 328 324 314 313 308 302 307 316 348 320 163 157 105 67 37 58 120 98 83 64 78 89 202 224 139 130 110 95 116 109 105 88 107 125 131 127
14 14 15 13 8 0 351 343 335 333 327 327 315 306 297 318 352 36 8 178 154 86 31 30 47 101 88 76 59 121 154 178 180 121 133 119 107 122 121 340 151 145 143 140 139
8 9 9 11 6 0 353 349 341 337 333 339 332 314 293 326 139 29 109 121 110 62 37 43 50 81 80 85 57 41 241 191 151 151 140 140 138 152 174 164 144 143 146 150 142
1 2 3 4 4 358 353 351 347 338 331 343 337 330 150 344 50 191 155 125 86 64 48 55 49 70 82 84 67 141 269 206 130 169 163 146 135 143 162 153 153 153 157 152 142
355 355 356 357 359 356 347 342 344 333 321 337 339 262 176 329 109 146 147 125 51 30 49 53 46 44 95 87 103 253 79 127 146 133 143 136 140 111 163 163 161 160 160 158 149
349 349 349 350 352 353 339 334 332 331 327 312 287 242 240 210 171 162 163 125 318 330 10 57 20 12 347 20 354 74 93 25 218 165 151 124 345 188 170 173 168 173 171 163 155
344 343 344 345 346 350 334 328 330 334 342 343 265 248 239 197 194 210 214 253 266 264 287 312 350 313 229 325 30 71 58 97 253 156 169 103 229 229 174 175 182 184 179 173 167
339 339 340 342 343 349 340 328 314 309 302 296 276 229 242 209 226 205 215 219 136 222 258 264 301 89 91 81 24 11 163 161 302 203 146 180 233 202 181 186 184 183 181 177 171
334 332 335 340 341 349 347 331 339 298 298 295 250 273 225 288 207 208 207 220 230 126 216 193 100 71 44 79 190 202 144 230 230 315 177 173 212 166 180 189 196 193 187 186 186
332 328 329 337 337 345 358 3 342 308 282 249 275 267 275 318 195 209 202 181 201 130 83 23 61 229 221 195 149 146 118 312 280 199 141 206 185 172 189 197 203 207 199 197 196
341 333 325 328 333 336 360 87 38 319 297 291 266 245 246 250 293 209 221 203 136 163 107 26 226 223 198 138 156 134 116 3 293 355 141 181 206 62 164 207 216 211 206 202 201
348 344 331 322 325 302 11 96 347 328 261 295 252 237 226 228 226 227 197 191 148 135 169 163 236 121 148 122 100 58 133 158 183 349 45 61 338 346 289 318 260 228 216 202 204
345 346 340 330 315 313 117 353 340 339 34 281 253 242 192 187 223 224 235 187 91 167 151 212 291 142 129 152 128 154 188 120 96 80 213 42 259 294 318 314 310 206 199 198 215
339 344 336 331 305 298 289 326 349 15 349 258 239 171 174 166 156 192 202 195 161 192 102 246 125 124 142 199 141 204 91 63 71 90 73 1 79 270 320 293 179 155 172 185 202
336 342 331 324 315 285 235 196 140 43 250 325 142 158 127 204 161 128 151 157 112 106 21 216 302 168 197 84 92 143 79 47 49 77 26 218 137 273 207 214 201 189 180 176 179
334 339 335 344 313 222 180 143 57 150 316 315 6 153 192 165 186 137 150 139 153 104 244 336 285 312 140 103 52 75 62 346 352 8 222 178 92 241 234 232 194 195 192 191 191
334 344 347 346 304 218 190 60 142 222 254 307 349 165 186 153 211 147 119 185 200 106 124 151 308 181 184 176 181 152 146 152 205 209 261 295 230 253 249 280 200 194 183 185 212
334 347 2 345 260 200 168 121 195 207 279 4 336 145 252 76 210 141 193 218 195 172 162 147 267 252 193 139 129 177 152 160 103 16 40 270 297 317 215 220 216 198 197 202 230
337 342 1 351 317 167 95 225 215 211 8 7 342 32 2 16 10 161 191 224 219 193 163 204 106 270 145 108 42 141 150 78 21 149 261 298 282 235 241 230 229 233 216 218 246
338 331 7 49 78 179 143 237 266 156 57 70 35 311 286 305 205 221 220 260 219 155 125 138 119 273 125 196 168 99 124 57 116 131 169 228 264 216 210 214 210 227 213 224 209
340 329 349 213 55 40 124 313 337 329 23 257 170 221 225 203 264 251 218 219 183 150 165 187 136 167 195 316 98 143 173 144 130 222 178 149 274 295 253 276 228 244 216 201 159
327 293 9 155 120 354 315 301 312 357 352 8 317 48 301 249 269 217 235 294 174 157 167 183 246 76 357 353 335 185 175 124 109 82 188 142 257 326 350 91 140 153 155 142 138
317 338 5 65 47 87 14 350 331 354 146 2 265 26 354 277 213 247 245 317 186 140 138 132 123 158 190 201 148 160 168 146 132 129 173 218 272 292 268 103 129 133 130 121 101
288 273 41 350 353 346 285 338 357 355 360 349 308 54 326 286 323 291 330 301 26 149 98 127 158 149 194 172 134 149 168 169 179 172 155 244 198 277 231 162 146 123 107 100 58
289 333 347 233 306 315 344 60 31 336 316 325 45 328 300 210 150 292 357 355 276 270 118 39 166 143 150 169 136 203 240 207 204 202 241 251 247 172 133 136 129 111 110 96 59
249 258 305 343 21 18 284 38 36 357 266 238 34 334 286 252 229 254 357 311 263 279 216 142 136 110 220 152 107 311 229 199 142 104 139 181 215 159 119 121 114 112 130 112 62